Preview of NWS' New Version of Forecast
This preview is not operational and should not be used for support decisions.

Regional Weather Roundup (RWR)

Issued by National Weather Service (NWS)

                            
000
ASUS43 KBIS 190202
RWRND 

NORTH DAKOTA REGIONAL WEATHER ROUNDUP
NATIONAL WEATHER SERVICE BISMARCK ND
800 PM CST MON FEB 18 2019

NOTE: "FAIR" INDICATES FEW OR NO CLOUDS BELOW 12,000 FEET WITH NO
SIGNIFICANT WEATHER AND/OR OBSTRUCTIONS TO VISIBILITY.


NDZ001>003-009>011-017-190300-
NORTHWEST NORTH DAKOTA
  
CITY           SKY/WX    TMP DP  RH WIND       PRES   REMARKS
WILLISTON      PTCLDY    -2  -8  76 CALM      30.38S                  
MINOT          CLOUDY     1  -4  79 S5        30.40S WCI  -9          
MINOT AFB      CLOUDY    -5 -10  81 S6        30.39F WCI -18          
$$
 
NDZ018>021-031>035-040>046-190300-
SOUTHWEST NORTH DAKOTA
  
CITY           SKY/WX    TMP DP  RH WIND       PRES   REMARKS
BISMARCK       CLEAR     -8 -12  83 S5        30.45S WCI -19          
DICKINSON      PTCLDY    -8 -13  78 S3        30.31S                  
GARRISON         N/A     -3  -6  87 SW5       30.39S WCI -13          
HETTINGER ARPT PTCLDY   -13 -16  86 CALM      30.34R                  
$$
 
NDZ004>008-012>016-024-026-027-054-190300-
NORTHEAST NORTH DAKOTA
  
CITY           SKY/WX    TMP DP  RH WIND       PRES   REMARKS
GRAND FORKS    PTCLDY    -7 -12  79 CALM      30.54F                  
GRND FRKS AFB  PTCLDY   -10 -16  75 SW3       30.53F                  
DEVILS LAKE    MOCLDY    -6 -10  83 SW3       30.47S                  
$$
 
NDZ022-023-025-028>030-036>039-047>053-190300-
SOUTHEAST NORTH DAKOTA
  
CITY           SKY/WX    TMP DP  RH WIND       PRES   REMARKS
FARGO          PTCLDY    -4  -8  83 CALM      30.55S                  
JAMESTOWN      CLOUDY     0  -5  79 CALM      30.46F                  
$$